カタログに戻る

STARLINK-4269

運用中通信VLEO
NORAD 52992·PAYLOAD·🇺🇸 United States

打ち上げ Jul 7, 2022 から Cape Canaveral Space Force Station

Loading…

次のパス (今後24時間)

TLE

最新Source: CelesTrak SupGP

元期: Sep 15, 2026, 01:51 UTC

1 52992C 22076G   26258.07756944  .00050736  00000+0  16316-2 0  2586
2 52992  53.1571 323.0152 0001051  97.5790 294.3634 15.31675713    12

AllMySatでSTARLINK-4269をリアルタイム追跡

Download on the App Store